Вернуться в каталог

NAVSTAR 27

USA 84

АктивенНавигацияMEO
NORAD 22108·PAYLOAD·🇺🇸 United States

Запущен Sep 9, 1992 с Cape Canaveral Space Force Station

Loading…

Ближайшие Пролёты (ближайшие 24 часа)

TLE

СвежийSource: Space-Track

Эпоха: Sep 13, 2026, 04:22 UTC

1 22108U 92058A   26256.18253879  .00000010  00000-0  00000-0 0  9992
2 22108  54.6682 163.8829 0017876  47.8028 312.3928  1.87561029244671

Отслеживайте NAVSTAR 27 в реальном времени с AllMySat

Download on the App Store